Wind_Speed
16 15 12 11 13 15 14 11 8 6 5 5 5 4 5 5 5 5 6 9 11 12 14 15 16 16 15 14 14 16 17 18 19 19 21 22 23 24 24 25 26 26 27 29 30 30 30 30 29 28 28 27 26 26 26 26 27 27 26 26 25 25 25 22 15 14 20 25 27 30 30 32 33 33 33 33 30 27 26 25 24 24 24 21 18
15 14 13 12 13 15 14 12 9 6 5 6 7 6 6 6 6 7 9 11 12 14 16 17 16 15 13 14 15 17 19 21 22 23 24 24 24 24 25 26 27 27 28 30 30 29 28 27 27 28 27 25 24 26 26 26 27 26 24 24 25 25 25 24 21 16 18 23 26 29 29 30 32 32 32 34 34 31 28 26 24 23 24 21 18
14 13 14 13 13 13 13 12 10 8 6 6 8 7 6 6 8 9 8 10 14 15 16 16 15 13 13 15 16 19 22 24 25 25 25 25 24 24 26 26 27 27 27 27 26 26 26 26 27 29 27 26 26 27 27 27 27 26 25 24 24 24 23 23 23 21 19 22 24 26 27 27 29 30 31 33 34 32 29 28 26 24 24 23 20
15 14 13 13 14 14 12 12 12 9 6 5 7 8 7 7 6 7 10 13 15 17 17 15 14 13 15 17 20 22 24 25 26 27 26 25 24 25 27 27 26 25 25 25 26 27 28 28 29 29 28 28 29 28 28 28 28 26 26 25 23 23 23 23 23 23 22 22 22 23 25 26 27 28 30 31 31 31 31 30 28 26 25 24 22
16 15 13 12 13 14 13 12 12 10 7 4 6 7 5 3 7 11 13 14 17 17 15 14 14 16 19 21 23 25 26 27 28 28 27 26 26 27 27 27 26 25 26 27 28 29 29 29 29 29 30 30 29 29 29 29 28 27 27 25 23 23 23 23 23 24 24 23 22 22 23 25 26 26 27 29 30 31 32 32 30 28 26 24 24
17 16 14 12 12 13 13 11 10 10 8 4 2 2 6 10 13 13 14 16 17 15 14 15 17 20 22 23 25 26 28 28 29 29 28 28 28 27 27 27 27 27 28 29 29 28 28 28 28 29 29 29 29 29 30 29 28 28 26 24 23 24 24 23 23 24 24 23 22 22 22 23 24 24 25 26 29 30 30 30 30 30 28 26 25
17 15 13 12 10 11 11 10 9 6 3 4 9 12 13 13 14 15 16 16 15 14 16 19 20 21 23 24 26 27 28 30 30 30 29 28 28 28 28 29 28 28 28 27 27 27 27 27 27 27 27 28 28 29 29 29 28 27 24 23 24 25 25 24 23 23 22 22 22 22 23 22 22 23 23 25 28 29 29 27 26 29 29 28 26
13 12 14 11 8 7 7 6 6 8 11 13 15 14 14 14 15 16 16 15 16 16 18 19 21 22 23 25 27 28 29 31 32 31 29 28 29 29 29 29 28 27 27 26 26 26 27 28 28 27 26 26 27 28 28 28 29 27 25 25 26 27 27 26 25 23 22 21 21 22 23 22 22 22 24 24 23 24 27 27 25 27 28 27 27
9 10 12 9 5 6 7 10 14 16 15 15 15 15 15 16 17 17 17 18 19 19 19 19 20 22 24 26 27 29 31 32 31 30 29 29 29 29 28 28 27 26 26 26 26 27 29 30 30 28 26 27 28 28 27 28 28 29 30 30 30 30 29 28 26 23 21 20 20 21 21 21 21 21 22 21 20 22 26 26 24 26 28 28 26
8 9 11 13 16 17 17 18 18 17 16 16 16 16 17 17 18 19 20 20 20 19 19 20 21 22 24 26 28 30 31 31 30 28 29 29 29 28 28 28 27 26 27 27 28 29 30 31 30 28 27 30 31 29 29 30 30 32 33 33 33 32 31 29 27 24 22 20 19 19 17 18 21 23 22 23 23 25 27 24 22 22 22 21 19
11 15 19 21 21 20 20 20 19 18 18 18 17 18 18 19 21 22 22 21 21 20 20 21 22 23 24 26 28 30 31 30 28 28 28 28 28 28 29 28 27 28 28 28 29 29 29 30 30 27 29 33 32 30 31 32 33 34 34 33 32 31 30 30 28 25 23 22 21 20 17 18 23 25 25 25 24 24 24 23 22 19 16 12 10
22 25 25 23 22 22 21 20 20 19 18 18 18 18 19 21 23 23 23 22 21 21 21 21 22 23 24 26 28 30 30 29 28 27 27 27 27 28 30 29 29 29 29 28 28 29 29 29 27 27 31 34 32 32 35 36 35 34 33 33 32 30 29 29 28 26 25 24 24 23 20 20 23 25 25 25 23 22 22 23 22 19 16 13 10
28 27 25 23 23 23 21 21 21 19 18 18 18 19 20 23 24 24 23 22 21 21 21 21 22 22 24 26 28 29 29 28 27 26 26 26 26 28 30 30 29 30 29 28 28 29 29 28 26 28 34 35 33 36 39 38 37 36 34 33 32 31 30 29 28 27 27 26 25 25 24 23 22 24 25 24 24 24 21 19 20 18 16 15 17
27 26 25 24 23 22 20 21 21 19 19 18 19 20 22 23 23 22 22 21 21 20 19 20 21 22 23 25 26 29 29 27 26 25 25 25 26 27 29 29 29 29 28 27 27 28 29 28 26 28 34 36 35 38 41 40 39 37 35 35 34 33 33 31 29 28 27 26 26 28 29 27 26 28 29 27 27 27 22 18 18 19 20 19 21
26 26 24 23 22 20 20 20 20 19 19 18 20 22 22 22 22 21 21 22 21 19 18 18 20 21 22 23 25 27 28 26 25 24 24 25 26 27 28 29 28 28 27 27 27 27 28 26 24 27 34 35 35 38 42 40 38 36 35 35 35 34 33 31 31 30 28 27 28 31 33 32 31 31 30 28 28 28 25 23 21 23 26 23 19
26 25 23 21 20 19 19 20 20 20 19 19 21 21 21 21 21 19 20 21 21 20 18 17 17 19 21 22 23 25 27 26 25 24 23 24 26 27 28 28 27 27 27 27 26 27 28 26 24 27 32 35 36 39 42 39 36 35 34 35 36 35 33 32 32 31 30 30 32 33 35 35 34 33 31 29 29 30 28 26 24 24 24 18 14
25 24 22 20 19 18 19 19 20 19 19 20 21 21 20 20 18 16 17 19 20 20 19 18 17 18 20 21 22 23 25 26 25 23 23 24 26 27 27 27 26 27 28 26 26 27 27 25 25 27 31 34 37 40 42 38 35 35 34 35 35 35 37 39 37 33 31 30 31 33 34 34 33 31 30 28 28 29 26 23 21 19 17 10 8
24 23 21 19 18 18 18 18 19 19 20 20 20 19 18 18 16 15 16 18 19 19 18 18 18 18 19 20 20 21 23 25 24 24 24 25 26 26 27 27 27 28 28 26 26 27 26 25 25 26 31 35 36 39 40 38 36 36 36 36 35 35 41 46 43 38 33 29 27 27 28 27 26 25 26 25 26 26 24 23 21 17 15 12 10
23 22 20 18 18 17 17 17 18 19 20 20 18 18 17 16 15 14 15 17 17 17 16 17 18 18 18 18 18 20 22 23 24 25 24 25 25 26 26 27 27 27 27 26 26 26 26 27 27 27 32 36 35 37 39 37 36 37 37 37 37 38 43 46 42 37 33 27 24 24 23 22 19 18 19 20 21 21 21 24 23 19 16 14 13
22 20 18 17 17 16 16 16 17 18 18 18 18 17 16 15 14 14 15 15 16 15 15 16 17 17 17 17 17 20 22 23 23 24 24 25 25 25 26 26 26 26 26 25 27 27 28 29 29 30 34 36 34 36 38 36 34 36 37 38 39 41 42 42 38 35 32 28 26 26 25 22 19 18 18 19 19 17 16 18 21 20 18 16 15
20 19 17 17 17 16 15 16 17 17 17 17 17 17 16 14 13 13 14 14 15 15 15 15 16 17 16 15 16 19 21 21 23 23 24 24 24 24 25 25 24 25 25 26 27 28 28 30 31 31 35 37 36 36 38 36 33 34 37 38 40 41 40 38 37 36 34 32 31 28 25 23 21 19 17 15 12 9 8 11 13 14 14 15 16
19 18 17 17 17 16 15 15 16 17 16 16 16 17 16 15 13 13 14 14 15 16 15 14 14 15 15 14 15 18 19 20 23 24 24 24 23 23 24 24 24 24 25 26 27 27 28 29 30 32 35 38 36 35 36 35 33 34 38 41 43 43 41 38 38 38 35 33 34 34 32 31 27 20 16 12 9 7 4 1 6 8 9 10 12
18 18 17 17 17 15 15 15 16 17 16 15 16 17 16 15 14 13 13 16 17 17 15 13 13 15 15 13 14 16 17 20 24 25 24 23 23 23 23 24 25 25 25 25 25 25 27 28 29 32 35 37 37 35 34 33 34 36 39 42 44 45 44 42 40 39 36 35 38 40 41 39 34 27 25 24 22 19 19 16 9 2 2 4 7
17 17 17 17 17 15 15 16 17 17 15 14 16 17 17 16 16 14 14 16 17 17 14 13 13 15 15 13 14 15 17 21 24 24 24 23 22 23 24 24 25 24 23 24 23 23 25 27 28 31 34 35 35 36 34 33 35 37 38 40 43 45 45 43 39 37 37 36 37 39 39 39 35 30 29 31 32 30 29 28 23 16 10 7 6
17 17 16 16 16 17 17 18 17 16 14 13 15 16 17 17 17 15 14 15 16 15 14 13 13 14 13 12 13 15 18 21 22 23 24 23 22 22 24 24 25 24 23 22 22 22 23 25 28 30 31 32 33 34 34 33 35 36 36 38 41 41 40 40 38 37 36 34 33 35 36 36 34 31 30 34 37 37 34 32 29 25 20 16 14
16 16 16 16 17 19 19 19 18 16 15 14 14 16 16 17 17 15 13 13 14 14 14 12 12 13 12 11 12 14 17 19 20 21 23 23 23 22 23 23 23 24 23 21 20 21 22 25 29 31 31 32 32 32 32 32 34 37 38 38 38 37 36 35 34 34 34 33 32 34 35 34 34 34 35 37 38 38 35 32 31 29 25 21 18
16 17 17 18 19 19 19 19 19 17 16 15 15 15 15 16 17 15 12 12 12 12 12 12 11 11 11 10 12 14 15 16 18 19 20 22 23 23 22 22 22 24 24 22 21 22 22 25 29 32 33 33 34 33 33 34 36 39 40 39 37 35 32 31 31 32 32 31 32 33 35 36 36 37 37 35 34 35 34 32 30 29 27 24 22
17 18 18 19 19 19 19 19 18 18 16 15 15 15 14 14 15 14 11 10 11 11 11 11 10 10 10 11 11 13 14 15 16 17 16 18 22 23 23 22 22 23 24 22 21 23 24 26 30 33 34 34 35 35 36 37 37 38 40 40 39 37 35 35 35 34 32 31 32 34 36 37 37 35 35 34 32 32 33 31 28 27 27 24 21
17 18 19 19 19 19 19 18 18 18 18 16 15 14 13 12 12 13 11 9 9 11 12 11 10 10 10 11 11 13 14 14 14 14 14 16 19 23 23 21 21 22 23 23 24 26 28 28 30 32 33 33 32 33 35 37 37 38 39 39 39 38 37 36 35 35 33 31 31 32 32 33 35 33 32 32 31 29 30 29 27 25 26 23 19
17 18 19 19 19 18 18 18 18 18 18 17 16 15 13 10 10 10 11 9 9 11 13 13 12 11 10 10 11 11 12 12 12 13 15 16 17 21 22 20 20 21 24 26 26 27 28 28 28 30 31 31 30 30 32 33 35 36 37 37 37 36 36 35 35 36 35 32 29 29 28 28 30 29 27 26 27 27 26 27 25 24 24 22 19
18 19 19 19 19 17 17 17 17 17 17 16 15 15 15 13 10 9 9 9 8 10 14 14 13 12 10 10 10 10 10 10 11 14 16 16 16 19 22 21 20 22 25 27 27 27 27 26 26 27 29 29 29 28 29 30 31 32 33 35 35 35 35 36 36 35 35 34 33 31 28 27 28 28 25 24 25 25 25 25 25 25 24 22 20
19 19 19 19 18 17 17 17 17 17 17 16 14 14 15 15 14 11 9 8 7 8 12 14 14 12 9 8 9 9 9 10 12 14 16 16 15 18 22 22 20 22 25 27 27 26 26 25 24 25 26 28 28 28 29 29 30 30 30 31 33 34 35 35 34 33 33 35 34 32 30 28 27 27 28 26 25 25 26 26 25 25 24 22 22
19 19 20 20 19 17 17 17 17 17 16 15 14 13 12 13 14 14 12 9 7 6 7 11 13 12 10 7 7 8 9 10 12 13 15 16 16 18 21 21 20 21 26 27 26 24 24 24 24 24 25 26 28 28 29 29 29 29 28 28 30 32 33 33 34 34 34 34 34 33 34 33 29 27 30 30 25 23 25 26 25 25 24 23 23
17 18 19 20 19 18 17 17 17 17 16 14 13 11 10 10 11 13 13 12 9 8 6 6 10 12 11 8 6 6 7 9 11 13 15 16 16 18 20 21 20 21 25 26 24 22 22 23 24 24 24 25 27 28 30 30 30 29 29 28 29 31 33 33 34 35 34 34 36 37 37 37 34 30 29 29 25 23 24 25 25 25 25 24 23
17 17 18 19 18 17 16 16 17 18 17 15 13 12 10 10 10 10 10 9 8 8 7 5 7 10 12 10 6 5 6 8 10 13 14 16 17 19 21 22 21 22 24 24 23 22 21 22 24 23 23 24 26 27 29 31 30 29 29 29 29 31 32 32 33 34 32 33 36 37 37 38 39 36 32 29 25 23 25 25 23 24 24 24 23
17 19 19 18 18 17 16 16 16 17 17 15 14 12 11 11 11 10 9 7 6 7 8 7 5 8 10 9 5 4 5 7 10 12 14 15 16 20 22 21 20 19 21 22 22 21 21 22 23 22 22 24 26 27 28 31 31 30 29 28 28 30 31 30 31 33 34 35 37 39 39 39 40 40 37 32 26 24 25 26 24 24 25 24 23
18 20 20 19 18 16 16 16 17 16 16 15 14 12 11 11 12 12 10 8 6 7 9 9 5 4 7 7 5 4 5 6 8 11 12 14 16 20 21 18 16 17 18 20 21 21 21 22 22 20 20 23 26 27 28 31 32 31 31 29 28 29 30 30 30 33 35 35 37 38 38 39 39 39 37 32 26 25 27 28 26 25 26 26 24
17 18 20 19 18 17 16 17 18 17 16 15 14 13 12 12 13 13 11 8 7 8 10 10 6 3 5 5 5 4 4 5 7 10 12 14 16 19 19 16 14 15 16 18 19 19 20 21 21 20 19 21 25 27 29 31 32 32 32 30 30 31 32 32 33 34 34 34 36 36 36 36 37 37 35 31 27 26 26 28 28 26 26 27 25
17 17 18 19 19 17 17 19 20 19 17 16 15 14 14 13 13 12 11 8 7 8 9 9 7 3 3 4 4 3 4 5 7 9 11 12 14 16 17 16 14 13 14 16 17 18 19 20 20 20 19 20 23 27 28 31 32 32 31 30 30 32 33 33 33 34 33 34 35 35 34 34 35 34 32 30 28 27 27 28 28 26 26 26 25
19 18 19 20 19 18 18 20 21 20 19 17 16 16 16 14 13 12 11 9 8 8 8 7 6 3 2 3 2 3 4 5 6 7 8 10 13 14 15 15 13 11 12 14 15 16 18 18 19 20 18 18 22 26 29 31 32 32 31 31 30 31 31 31 31 31 32 33 34 34 33 34 35 35 33 32 31 29 28 28 27 26 26 25 26
21 20 20 21 20 19 20 21 21 20 20 18 17 16 16 15 13 12 11 9 9 8 8 7 6 5 3 3 1 2 3 3 3 5 7 9 11 13 13 13 12 10 10 12 14 15 16 17 19 19 17 16 21 26 29 32 33 32 32 31 31 31 31 30 30 31 31 32 34 34 33 34 35 34 34 34 32 31 29 28 28 27 26 27 27
23 22 22 23 23 22 22 22 21 20 19 19 17 17 16 15 14 13 12 11 10 10 9 8 8 7 5 4 2 1 2 2 2 3 5 7 10 12 13 13 11 8 8 10 12 13 14 15 17 18 17 16 20 25 29 32 34 33 31 31 31 32 32 30 30 30 31 32 33 33 33 34 34 34 34 33 33 31 30 29 28 27 27 27 27
25 23 24 25 25 24 23 23 22 21 20 20 18 17 16 16 14 14 14 13 11 11 11 10 9 9 8 5 3 1 1 0 0 2 4 6 8 11 12 12 10 7 7 8 10 11 13 14 16 17 17 17 19 23 27 31 32 32 31 30 31 31 31 30 30 30 31 31 32 32 32 33 33 34 34 34 33 32 31 30 29 28 27 27 27
26 24 25 26 26 25 24 24 23 22 21 20 19 18 17 17 17 16 15 14 12 12 12 11 11 11 10 7 4 2 1 1 1 1 3 5 7 10 11 11 9 6 6 8 9 10 11 14 15 16 16 17 19 22 26 29 31 31 30 29 30 30 29 29 29 29 30 31 31 31 31 32 32 33 34 33 32 32 31 30 30 29 27 27 27
28 26 26 27 27 26 26 25 24 23 22 21 20 19 19 20 19 18 17 15 13 13 12 12 12 12 11 8 6 4 2 3 2 1 2 4 6 9 10 10 8 7 7 8 8 9 11 12 14 15 16 17 20 23 26 28 30 29 28 27 28 29 28 27 27 27 27 28 29 29 29 30 30 31 32 31 31 30 30 30 30 29 27 27 26
30 28 28 29 29 29 28 27 25 24 24 23 21 21 22 22 21 20 18 15 13 13 13 14 14 13 11 9 7 5 4 4 3 2 2 3 5 8 9 9 7 6 6 7 7 8 9 11 13 15 16 17 20 23 26 28 29 28 27 26 26 27 26 25 24 24 24 25 25 26 26 27 28 29 30 30 30 30 30 30 30 28 27 26 26
32 30 29 30 31 30 30 29 28 26 26 25 22 22 23 23 22 22 20 16 13 13 15 15 15 14 12 10 8 7 6 5 4 3 3 3 5 6 8 8 6 5 5 6 6 7 9 10 13 15 16 18 21 23 25 27 28 27 25 25 25 25 25 23 22 22 21 20 21 21 23 25 26 27 28 29 30 30 30 30 29 29 27 26 26
34 32 30 30 31 32 31 31 30 29 29 26 24 23 24 24 23 23 22 18 14 15 16 17 16 15 13 11 9 8 7 6 5 4 3 4 5 5 7 7 5 4 4 5 5 7 9 11 13 15 16 18 21 23 25 27 28 27 25 24 24 23 23 22 21 20 18 17 17 18 20 22 24 25 27 28 29 30 30 29 29 28 28 26 27
35 34 32 32 32 33 33 33 32 32 31 28 25 25 26 25 24 25 23 19 17 17 18 18 18 16 14 12 11 9 8 7 6 5 4 4 4 5 6 6 5 4 4 4 5 7 9 11 13 15 17 19 21 23 24 26 27 26 25 23 22 22 21 20 20 19 17 15 15 17 19 21 23 25 27 28 29 29 29 29 28 27 27 27 27
37 36 35 35 35 34 34 34 33 33 32 29 27 27 27 26 26 26 25 22 19 19 19 20 19 17 15 14 13 11 10 9 7 6 5 5 5 4 5 5 4 3 3 4 5 6 8 10 13 15 17 19 21 22 23 25 25 25 23 21 21 21 21 20 19 19 17 15 15 16 18 20 22 24 26 28 28 29 29 28 27 27 27 27 27
39 37 36 36 36 35 35 35 34 34 33 31 30 29 29 28 29 28 26 23 22 21 21 21 20 18 17 15 14 13 12 10 8 7 6 5 5 4 4 5 4 2 2 3 4 5 7 10 12 15 17 19 21 22 22 24 24 23 21 19 19 20 20 20 19 19 17 15 15 15 17 19 21 23 26 28 28 28 28 27 26 26 26 26 26
Wind_Direction
208 209 208 207 203 199 198 198 200 207 216 229 237 237 244 264 291 312 336 347 355 12 29 39 43 44 44 45 48 50 49 49 47 43 40 36 32 28 23 19 17 14 8 4 1 357 353 350 348 349 349 346 344 344 342 341 339 336 334 330 325 323 315 303 295 294 295 294 288 282 277 272 269 268 269 269 270 270 270 274 277 281 289 296 298
212 214 211 207 202 198 199 204 209 213 222 233 236 244 259 276 297 310 333 1 26 44 51 53 52 48 49 53 54 53 50 49 46 43 40 36 34 30 24 20 16 11 6 2 359 356 353 350 348 348 347 345 345 344 341 341 342 338 336 335 330 328 326 320 315 311 310 310 305 297 288 274 264 262 263 264 266 267 267 268 270 275 282 286 286
220 217 213 212 206 200 204 212 215 215 225 240 242 246 263 289 309 327 4 42 56 58 56 53 50 51 58 61 58 54 51 48 45 42 41 38 34 29 22 18 14 9 5 2 358 356 354 351 349 349 347 344 342 341 340 339 340 338 335 334 330 327 328 327 323 318 314 316 316 312 304 289 275 268 265 263 264 266 266 267 267 269 276 279 276
225 218 212 214 213 209 213 219 219 219 230 254 256 253 272 304 338 30 61 66 60 57 54 51 53 64 69 64 59 54 49 46 43 41 39 36 30 24 19 16 14 10 5 2 359 358 356 353 351 349 346 342 339 338 338 337 337 335 333 332 331 329 329 327 323 318 314 313 315 314 313 306 295 285 276 268 265 265 266 266 265 265 270 272 270
225 218 211 209 208 209 214 219 220 223 227 261 277 271 286 9 62 70 69 61 56 55 54 58 70 75 71 64 58 53 48 43 40 37 34 30 25 20 17 16 13 10 7 5 2 0 357 353 350 348 345 341 339 337 337 336 335 333 331 331 331 330 328 326 322 319 314 311 312 314 316 315 311 304 293 280 270 265 262 260 260 262 264 264 263
224 220 210 201 201 206 214 217 220 227 236 270 328 66 86 84 79 68 60 58 58 59 67 78 81 76 69 63 57 52 46 42 38 34 30 26 22 20 18 16 14 11 10 8 5 2 360 355 351 349 347 343 341 340 339 338 336 333 331 331 332 329 325 322 320 317 313 310 313 316 317 315 313 313 309 297 281 270 262 257 256 257 257 255 256
224 218 199 188 193 201 211 218 220 220 202 106 95 96 90 81 73 64 59 61 65 74 85 86 80 73 68 61 55 49 44 39 34 31 28 25 23 22 19 15 13 12 11 10 9 6 3 359 355 352 351 348 345 343 341 340 336 332 331 332 330 327 323 320 318 315 312 312 313 314 312 311 310 311 313 310 295 280 269 261 255 253 250 247 249
211 199 188 189 201 208 213 207 166 127 115 107 100 94 84 75 70 65 65 71 80 88 89 83 77 71 65 59 53 47 41 37 32 29 28 26 23 20 16 14 15 15 14 11 10 8 5 3 0 356 353 351 347 344 342 340 335 331 330 329 326 324 321 318 315 312 309 308 308 308 307 307 307 308 312 315 308 289 274 265 256 249 245 243 245
169 177 188 183 153 139 137 129 122 115 110 104 95 88 82 74 70 70 76 85 90 90 85 79 75 69 62 56 51 45 40 37 33 29 27 25 21 17 16 18 19 18 15 13 11 8 7 6 3 359 355 352 348 344 341 339 335 330 327 324 321 318 315 313 311 309 307 304 301 303 303 301 301 304 306 307 307 302 292 281 268 255 246 241 241
158 167 161 133 118 118 118 116 115 110 102 96 91 86 80 75 77 80 85 89 89 86 81 76 70 65 59 54 48 44 41 36 31 27 25 23 20 18 18 21 21 18 15 13 10 8 7 5 3 1 358 353 348 344 341 337 334 329 324 321 317 313 310 307 305 305 304 302 300 299 298 295 295 296 294 294 298 304 303 295 285 272 254 240 238
142 134 128 123 121 120 117 113 107 100 96 92 87 82 80 81 84 84 84 87 86 82 76 71 66 61 57 52 48 44 40 33 27 24 24 23 20 20 22 22 20 17 16 13 9 7 6 5 4 3 358 353 348 344 340 336 332 329 325 322 319 314 309 303 300 300 300 298 296 293 288 287 291 291 289 289 291 296 300 299 293 282 265 248 236
128 126 124 124 123 120 115 109 102 97 93 89 85 83 84 85 83 80 81 84 83 77 72 69 65 59 55 52 48 44 38 30 25 24 25 24 22 22 25 23 20 17 15 13 10 7 4 3 4 2 357 353 350 346 341 336 333 330 327 326 323 320 314 304 297 295 293 291 290 287 282 280 285 287 285 286 288 291 296 298 292 280 266 256 246
128 126 125 124 122 117 112 105 100 97 93 90 88 87 84 82 79 78 79 80 78 75 72 69 64 58 55 51 47 43 36 27 23 25 25 23 22 24 25 23 20 17 15 12 9 6 2 359 360 359 356 353 352 349 344 339 335 332 328 327 325 324 322 313 302 292 285 282 282 280 277 276 278 281 281 284 289 288 288 293 297 296 283 267 263
127 125 124 122 118 112 107 103 100 98 95 93 90 86 82 79 77 77 77 77 78 78 76 70 64 57 53 50 47 43 36 26 22 24 25 23 22 23 24 23 19 16 13 10 7 3 0 357 356 356 356 354 352 349 346 341 336 331 329 326 323 323 322 318 311 302 289 279 274 273 274 273 272 276 280 281 282 281 281 285 295 301 294 277 270
125 123 121 117 113 108 103 102 102 101 98 94 89 84 80 78 78 77 76 77 80 83 79 70 62 55 51 48 45 42 35 25 22 23 23 23 21 21 22 21 16 13 10 8 5 2 359 356 353 354 354 353 352 350 347 343 338 333 330 327 324 322 320 317 314 308 296 284 276 273 273 272 271 274 278 280 278 278 283 285 284 289 288 280 272
122 121 117 113 109 106 105 105 105 103 99 93 88 83 80 79 78 77 78 79 81 81 79 73 62 54 50 44 40 40 33 24 21 22 21 21 20 19 20 18 12 9 7 7 4 0 359 356 352 352 352 351 350 349 348 344 340 336 332 329 328 325 320 317 314 307 297 289 283 278 275 274 274 274 276 278 278 280 285 286 280 280 280 271 258
120 118 115 112 109 107 108 107 105 102 98 93 89 84 80 78 76 74 77 79 79 78 78 77 67 55 48 40 35 35 30 23 21 23 23 22 21 20 18 14 10 7 6 5 3 1 1 357 352 351 350 348 348 350 350 347 343 340 336 333 331 327 325 326 323 317 308 298 290 285 281 279 278 276 274 276 276 278 280 276 269 268 269 259 240
120 117 114 112 109 108 108 106 104 103 98 94 90 85 79 77 75 76 80 81 81 78 75 73 66 54 46 39 32 29 27 22 21 23 24 23 22 21 17 11 8 6 4 4 3 2 2 359 356 353 349 347 348 351 352 350 347 343 340 338 335 330 331 334 332 328 325 316 306 301 296 290 284 276 272 272 274 274 269 259 255 255 256 250 238
120 117 115 113 110 109 108 108 106 104 100 97 92 86 82 81 82 84 84 83 80 75 70 66 60 51 41 34 28 24 21 19 19 22 24 23 22 21 17 11 7 2 0 0 360 2 2 360 357 354 350 349 350 352 354 354 351 347 345 343 340 336 337 340 338 337 339 334 325 322 317 309 299 286 277 275 273 269 260 255 252 243 236 237 232
119 117 115 112 109 109 111 111 109 107 105 103 96 90 86 85 87 88 86 81 74 71 69 64 56 46 37 30 26 22 18 16 18 21 23 24 23 20 18 13 5 358 358 359 358 360 1 358 356 353 353 354 355 355 357 356 354 353 352 348 342 340 344 349 351 354 357 353 343 333 325 318 312 301 291 284 278 270 258 252 247 235 225 227 225
119 117 115 112 112 113 114 113 112 113 114 111 102 92 85 83 86 89 85 76 69 70 70 62 52 43 35 28 25 21 17 17 20 23 24 24 23 21 19 15 6 1 0 360 359 360 359 357 355 351 354 359 359 357 360 359 356 357 357 353 350 351 355 358 0 4 8 6 359 352 344 337 330 319 309 301 294 285 258 241 237 230 228 231 229
120 118 117 115 117 118 118 118 120 121 122 117 105 93 86 83 84 86 81 72 69 71 69 59 49 41 34 27 21 18 20 24 25 25 24 24 24 24 21 17 12 9 5 2 0 359 357 356 353 351 357 3 1 359 2 2 359 359 358 359 2 5 5 5 7 8 8 8 9 10 7 3 358 355 359 10 23 30 32 228 223 226 234 243 240
120 118 118 119 122 125 125 128 131 129 126 119 105 96 90 85 83 84 81 74 71 70 66 56 44 34 30 27 20 20 27 31 29 26 25 25 26 25 23 20 17 14 9 5 1 358 356 355 352 355 1 3 1 1 2 2 2 2 0 2 7 10 10 10 11 9 7 7 10 12 11 9 7 11 22 30 34 36 37 42 52 79 254 280 272
120 119 122 125 129 133 135 137 137 134 129 119 107 98 91 86 84 85 81 75 71 69 64 55 42 32 27 26 26 30 33 33 30 28 27 27 27 26 24 22 20 16 11 7 3 359 358 356 354 358 2 2 2 3 2 2 5 5 2 4 9 11 11 10 9 8 8 8 7 7 8 7 5 9 19 27 31 33 33 38 47 57 60 44 19
121 122 126 131 136 140 141 140 137 134 129 119 108 101 94 88 86 86 81 76 73 69 64 56 44 36 33 32 35 38 36 32 30 30 29 29 28 26 25 24 21 17 12 8 4 1 1 0 0 2 3 2 4 5 3 2 4 5 5 7 10 11 10 8 7 7 8 7 4 5 6 5 3 7 17 24 29 30 28 30 37 47 54 55 55
123 128 132 137 143 144 142 140 137 134 128 118 107 101 95 90 89 88 85 80 75 69 65 59 47 40 42 46 46 41 36 32 30 30 30 29 26 24 24 24 21 17 14 12 8 6 5 5 7 8 7 6 7 7 5 3 5 7 9 10 10 10 9 7 5 5 5 3 2 4 6 5 5 11 18 23 25 25 23 23 26 30 35 39 42
129 136 140 143 147 146 144 143 141 137 131 121 110 103 96 93 93 92 90 88 84 75 68 61 51 46 52 57 52 42 36 32 29 28 28 27 24 22 23 23 20 17 15 14 12 12 11 11 13 12 11 11 10 10 8 7 7 9 10 9 9 9 8 7 7 7 4 1 1 4 6 8 10 13 16 18 20 20 19 20 21 21 21 25 27
136 142 147 148 149 149 148 147 146 140 133 123 113 107 103 99 99 99 96 93 91 85 76 67 58 56 62 62 51 39 34 31 28 26 26 25 24 22 22 22 20 17 16 15 15 17 17 16 16 14 13 12 10 9 8 7 8 9 9 8 9 9 8 9 10 8 4 1 3 6 8 8 9 10 12 14 15 15 16 18 18 17 17 22 25
141 147 152 151 149 150 151 152 150 145 137 128 118 113 110 105 106 110 110 103 93 85 78 72 68 68 70 64 48 34 28 26 26 26 26 26 24 20 20 22 21 18 17 19 21 21 20 18 16 13 12 10 8 7 6 5 5 6 7 7 8 8 9 8 7 5 3 2 3 5 6 6 5 5 8 11 10 10 12 14 15 15 16 19 20
146 151 154 152 151 152 151 152 153 150 145 139 131 125 121 115 112 116 120 118 104 83 73 72 74 77 76 64 47 34 25 22 26 29 29 27 22 17 17 23 25 20 18 22 25 23 20 17 14 12 11 9 7 5 4 3 2 2 2 4 6 6 6 5 3 4 4 3 1 360 359 0 360 357 359 4 6 5 8 11 12 12 14 15 13
151 155 157 156 155 156 153 153 155 154 152 149 142 136 135 132 126 124 123 123 113 87 71 69 71 75 74 63 49 37 30 29 32 31 28 24 18 14 15 22 28 23 20 23 27 25 20 17 13 10 9 8 7 4 3 2 2 360 359 1 3 4 4 2 2 3 5 5 4 2 357 355 355 353 352 356 1 3 4 7 10 11 11 10 7
159 160 161 159 158 159 157 157 159 158 157 156 152 147 145 142 139 141 142 137 127 103 80 71 70 70 69 60 44 33 32 38 37 29 24 21 16 12 15 23 29 26 22 25 29 25 20 16 12 10 9 8 6 4 2 1 1 360 359 359 360 0 1 1 0 3 6 6 4 2 359 357 353 352 352 354 358 1 2 3 7 8 6 5 3
166 165 165 162 160 160 160 162 164 165 163 161 159 156 155 154 152 156 161 163 159 142 106 82 70 65 64 58 42 31 32 39 36 26 20 18 14 10 15 25 32 28 24 27 28 23 18 15 12 10 9 8 6 5 4 2 1 0 360 358 357 357 359 0 3 5 6 5 4 5 7 4 357 352 353 354 355 358 360 0 2 2 2 2 359
171 171 170 168 165 163 163 164 166 168 168 167 165 163 165 169 168 168 171 179 187 189 167 108 70 59 58 55 40 29 30 34 32 24 16 16 15 10 13 24 33 30 27 29 28 22 16 13 11 10 10 10 8 7 5 3 1 360 359 358 357 357 358 1 4 5 4 4 6 9 11 8 4 358 352 349 350 356 359 359 359 359 358 356 354
174 173 174 174 171 168 166 166 165 165 166 167 168 168 171 179 181 178 179 185 196 201 186 142 79 58 54 50 38 29 31 33 29 22 16 15 13 10 14 24 30 29 28 28 27 22 16 11 10 11 12 12 10 9 7 4 2 0 358 357 356 357 359 0 2 2 3 5 7 9 10 8 7 4 357 350 350 355 357 355 354 354 352 350 349
175 174 175 178 175 170 169 170 168 165 164 164 165 164 167 173 177 176 178 185 199 205 192 165 113 65 56 53 46 41 42 35 26 20 17 17 14 14 21 29 31 29 28 26 23 21 18 14 12 13 14 13 12 10 8 6 3 1 359 358 357 358 358 358 359 1 5 8 9 10 9 7 6 5 2 357 353 353 354 353 351 351 350 347 346
177 177 178 180 179 174 171 172 172 169 167 167 166 164 162 163 166 168 172 179 185 190 190 184 163 81 59 55 51 55 53 38 25 19 18 17 15 18 24 31 32 31 28 24 20 19 18 17 16 15 13 12 10 9 8 7 5 2 1 0 360 359 358 358 360 3 6 7 8 8 7 4 4 4 2 357 350 348 350 350 348 348 348 348 347
179 182 182 182 181 177 173 174 174 173 172 171 171 168 164 160 160 162 164 165 161 165 177 183 177 117 62 51 49 51 42 28 22 20 19 17 16 18 23 29 32 32 28 23 20 18 17 17 17 14 11 9 8 8 8 7 5 3 2 1 1 1 1 2 4 7 7 6 6 6 4 1 0 0 359 354 347 344 345 346 346 347 347 348 348
180 184 185 185 184 181 177 176 176 176 176 175 174 173 169 165 163 163 162 159 154 157 166 174 175 154 67 51 48 34 21 26 30 25 20 19 17 17 20 24 28 29 26 22 19 18 17 16 15 12 9 7 6 8 8 7 5 3 2 2 1 1 2 3 4 5 6 5 4 4 1 358 357 357 356 353 348 344 342 343 344 345 345 344 345
181 184 186 186 185 182 178 178 179 182 182 179 178 178 176 175 173 171 169 167 164 163 166 174 181 173 105 71 52 18 16 37 41 29 21 20 17 15 18 21 24 26 25 21 19 17 16 16 13 10 7 5 5 6 7 6 5 4 3 3 2 0 0 1 3 4 5 4 3 2 360 358 357 356 356 354 351 347 344 342 343 345 346 345 345
184 185 188 189 186 182 180 180 184 186 186 185 183 182 181 181 180 179 179 178 178 178 178 182 183 173 143 122 98 13 20 48 49 28 22 20 16 14 16 18 20 24 24 20 17 16 16 15 12 9 5 2 2 4 5 5 5 4 4 4 3 1 1 2 4 5 4 3 2 1 360 358 357 355 354 353 352 350 347 346 345 346 348 349 349
187 187 189 189 187 184 183 185 187 187 187 188 188 187 186 185 183 185 187 185 183 183 183 178 176 174 161 151 159 358 16 45 50 25 20 17 13 12 14 14 17 25 27 20 16 16 16 14 11 8 5 1 0 2 4 5 4 4 4 4 3 2 2 3 5 5 4 2 2 1 360 359 359 357 355 355 353 351 350 349 348 348 350 351 351
193 191 190 189 189 189 189 189 189 189 190 191 192 191 191 190 188 190 192 189 185 187 186 180 178 178 174 170 186 250 346 72 50 14 15 11 8 9 10 11 15 24 26 20 18 17 16 14 10 7 5 2 360 1 3 5 5 4 4 4 3 2 4 5 5 4 3 1 1 0 360 359 359 358 358 357 355 352 352 352 352 352 351 352 354
195 192 190 191 193 195 195 193 193 194 196 197 197 196 195 193 192 192 193 192 190 189 189 186 185 183 180 182 197 220 225 206 220 351 1 0 3 5 6 8 12 20 23 22 22 21 18 14 9 5 3 360 358 359 1 4 5 6 5 3 2 3 6 6 4 3 1 359 358 358 359 359 360 359 358 357 354 353 354 355 354 353 354 355 357
197 193 191 192 194 195 196 196 197 199 199 199 199 200 198 195 194 194 195 196 197 195 192 192 191 189 188 191 201 209 213 212 220 292 335 345 355 0 2 5 11 21 28 29 26 23 19 12 6 3 1 358 356 357 359 3 5 7 6 4 3 5 7 6 3 2 1 358 356 356 357 358 360 360 358 356 354 355 356 358 357 356 356 357 358
197 194 193 194 194 195 196 198 200 201 200 199 200 200 197 195 197 198 198 200 202 199 195 194 194 194 195 199 203 208 211 212 222 255 303 329 345 354 357 1 10 25 35 35 30 25 18 7 1 1 1 357 355 356 359 2 5 7 6 5 5 7 7 5 3 3 2 359 357 358 359 359 1 1 359 357 358 360 1 2 0 359 359 359 359
198 197 196 196 197 197 199 200 201 202 202 202 202 199 196 197 200 201 201 203 203 198 196 198 199 199 200 202 205 210 215 216 223 242 275 306 328 343 352 356 3 20 32 34 30 23 11 360 358 0 359 355 355 357 359 2 5 6 7 7 7 7 7 4 2 2 1 359 360 3 4 4 4 3 1 1 2 4 5 4 3 2 1 1 2
200 199 198 198 200 200 201 201 202 203 203 203 203 200 198 200 202 202 202 203 201 196 197 201 202 202 204 205 206 211 216 218 223 237 258 287 310 331 346 351 355 8 21 27 28 20 6 357 356 357 355 353 354 358 0 2 4 6 8 8 7 7 6 5 2 1 1 1 4 8 11 11 9 7 7 8 7 7 7 5 4 4 4 4 5
202 201 200 200 201 203 203 203 203 205 205 204 203 202 201 203 205 203 203 204 202 198 200 203 204 205 206 206 206 210 214 216 223 233 249 270 294 318 338 345 346 355 10 22 26 18 5 356 353 353 352 351 353 357 1 3 5 7 8 7 6 5 5 6 5 4 2 3 8 14 18 18 17 15 15 14 13 12 10 7 5 6 7 7 8
204 204 203 202 203 206 207 207 207 207 208 207 205 204 205 207 207 205 204 204 202 200 202 205 206 208 210 209 209 212 215 219 226 232 244 263 279 301 328 335 335 346 5 19 26 18 1 350 349 349 348 349 352 356 1 5 7 7 6 5 5 6 6 6 8 7 5 7 14 20 22 23 23 22 21 20 18 15 12 9 8 8 9 8 8
204 204 204 205 206 208 208 208 208 209 209 209 208 207 207 207 206 206 206 205 204 204 205 207 209 211 213 214 215 216 218 223 228 231 242 260 267 281 312 322 320 332 4 19 23 10 350 343 345 346 345 347 351 355 360 5 8 7 5 5 8 8 7 8 11 11 11 13 18 23 26 27 28 27 25 24 22 18 14 12 11 11 10 10 10
Height
840 840 840 840 840 840 841 841 841 841 840 840 840 839 839 838 837 837 836 836 836 834 834 833 832 831 830 829 827 826 825 824 824 823 822 821 820 819 818 817 815 814 813 811 809 807 805 803 801 800 798 796 794 792 790 788 786 784 782 779 777 775 772 769 763 755 752 753 751 748 747 746 743 742 741 739 739 739 739 739 739 739 738 738 738
838 838 839 839 839 839 840 840 840 840 840 839 839 839 838 838 837 837 837 836 835 834 834 833 831 831 829 828 827 826 826 825 824 823 822 822 821 820 819 817 816 814 812 810 809 807 805 803 801 799 797 795 793 791 789 787 785 783 781 779 776 774 772 769 764 757 752 751 750 746 744 743 740 738 738 736 735 735 735 735 735 735 735 735 735
837 837 837 838 838 838 839 839 839 839 839 839 839 838 838 838 838 838 837 836 835 834 833 832 831 830 829 828 828 827 827 826 825 824 823 822 822 821 819 818 816 814 812 811 809 807 805 803 801 798 796 794 792 790 788 786 784 782 780 778 776 773 771 769 765 760 754 751 750 746 743 741 738 736 735 734 732 732 731 731 732 732 732 732 731
835 836 837 837 837 838 838 838 838 838 838 838 838 838 838 838 838 838 837 835 835 834 833 832 831 830 829 829 828 828 828 827 826 825 824 823 822 821 819 817 816 814 813 811 809 807 804 802 800 798 796 793 791 789 787 784 782 780 778 776 774 772 770 768 765 761 756 750 748 746 743 741 738 736 734 732 730 729 728 728 728 728 728 728 728
834 835 836 836 836 837 837 837 837 838 838 838 838 838 838 838 838 837 836 835 835 833 832 832 831 830 830 830 829 829 828 828 827 826 825 824 822 821 819 817 816 814 812 810 808 806 804 802 800 798 795 792 790 787 786 783 781 779 777 774 773 770 768 766 764 761 756 751 747 745 743 740 737 735 733 731 728 726 724 723 724 724 724 724 724
834 834 835 836 836 836 836 836 837 837 838 838 838 838 838 838 838 837 836 836 835 834 833 832 831 831 831 830 830 830 829 829 827 826 825 824 822 821 819 817 816 814 812 810 808 806 804 802 800 797 795 792 790 787 785 783 780 778 776 773 771 769 766 764 762 759 755 751 747 744 742 739 736 733 731 730 727 724 722 720 719 720 720 720 720
833 834 835 835 835 835 835 836 837 837 838 838 838 838 838 838 837 837 837 836 835 834 833 833 832 831 831 831 831 831 830 829 828 827 825 824 822 821 819 817 815 813 811 810 808 806 804 802 800 797 795 793 790 788 785 782 780 777 775 772 770 767 765 762 760 757 754 750 747 744 741 738 735 732 729 728 725 722 720 718 715 715 716 716 716
833 833 834 835 835 835 835 837 837 837 838 838 838 838 838 838 838 838 837 836 836 835 834 833 832 832 832 832 832 831 830 829 828 827 826 824 823 820 818 816 814 813 812 810 808 807 805 802 800 798 796 794 791 789 786 783 780 776 774 772 769 766 763 761 758 755 752 749 746 744 740 737 734 731 728 726 723 720 719 716 713 711 711 712 712
832 833 834 834 835 835 835 836 837 838 838 838 838 838 839 839 838 838 837 836 836 836 834 834 833 833 833 833 833 832 830 830 829 829 827 824 823 820 818 816 815 813 812 810 808 806 804 802 800 798 796 794 791 789 786 784 781 777 773 771 768 765 762 759 756 753 750 746 744 741 739 736 733 730 727 725 722 719 717 715 711 709 708 707 708
832 833 834 835 835 835 836 836 837 838 838 838 839 839 839 839 838 838 838 837 837 836 835 835 834 834 834 834 833 832 831 832 831 830 827 825 823 820 818 816 815 813 812 810 808 806 804 802 799 798 795 793 790 787 785 782 780 777 774 771 767 764 759 755 753 750 747 744 741 739 736 733 731 729 726 723 721 719 717 714 710 708 707 705 705
831 832 834 835 835 835 836 837 838 838 839 840 840 840 840 839 838 838 838 837 837 836 836 836 835 836 835 834 834 833 833 833 832 829 827 825 823 820 818 816 815 813 811 809 808 805 803 801 799 797 795 791 788 785 782 780 777 774 771 768 765 762 758 753 749 747 745 741 738 736 734 730 728 726 723 720 719 718 716 712 709 707 706 704 703
831 833 834 835 835 836 837 837 838 839 840 841 841 841 840 839 839 838 838 838 838 837 837 837 837 837 836 835 835 834 834 834 832 830 827 825 823 821 818 817 815 813 812 810 808 806 803 801 798 796 794 791 787 783 779 776 772 769 766 763 760 758 756 752 747 743 741 738 734 731 729 726 724 722 721 718 716 715 713 711 707 705 704 703 701
832 833 834 835 835 836 837 837 838 840 840 841 841 841 840 839 839 838 838 838 838 838 839 838 838 838 837 836 836 835 835 834 832 830 828 826 824 821 819 817 815 814 812 810 808 806 803 801 798 796 794 790 786 782 778 773 768 765 761 758 755 752 750 747 744 740 737 734 730 726 724 723 720 718 717 716 715 712 710 708 706 704 703 702 700
832 833 834 835 836 837 837 837 838 840 840 841 841 840 840 839 839 839 839 839 839 840 840 840 840 839 838 837 837 836 835 834 832 831 829 827 825 822 820 818 816 814 813 811 809 807 804 802 799 797 794 790 787 782 777 772 767 762 758 754 750 746 743 740 737 734 731 729 725 721 718 718 715 713 713 713 712 710 707 705 705 704 702 701 699
832 833 835 836 837 837 837 838 839 839 840 841 840 840 840 839 840 840 840 841 841 841 842 841 841 840 839 838 837 836 836 835 833 831 829 827 825 823 821 819 817 816 814 812 810 808 806 803 801 798 795 791 788 784 779 773 768 762 757 752 747 743 739 735 731 728 725 723 720 716 712 711 710 708 708 709 708 707 704 703 703 702 700 698 697
833 834 835 836 837 837 838 838 839 839 839 840 840 840 840 840 841 841 841 842 842 842 842 842 842 841 840 839 838 837 837 836 834 832 830 828 826 824 821 820 818 816 814 812 811 809 806 804 802 799 796 792 789 785 780 775 769 763 757 751 745 740 735 731 727 723 720 716 714 710 707 705 705 704 704 704 703 703 702 700 699 699 697 695 694
833 835 836 837 837 838 838 838 838 839 839 839 840 840 841 841 842 842 842 843 843 843 843 843 843 842 841 840 839 838 837 836 834 833 831 829 826 824 822 820 818 817 815 813 811 809 807 805 802 799 796 793 789 784 780 775 769 763 757 751 744 738 731 725 721 717 714 711 707 704 702 700 700 699 699 699 699 699 699 697 695 694 694 692 691
834 835 836 837 837 838 838 837 837 838 838 839 840 841 841 842 843 843 843 843 844 844 844 843 843 842 841 840 840 839 838 837 835 833 831 829 827 825 823 821 819 817 815 813 812 810 807 805 803 800 797 793 789 784 780 775 770 764 758 751 744 737 730 722 715 710 708 705 703 700 698 696 695 695 695 694 694 694 694 692 691 691 691 690 689
834 835 836 837 837 837 837 837 837 838 838 840 841 841 842 843 844 844 844 844 844 844 844 843 843 843 842 841 840 839 838 837 835 833 832 830 828 826 824 821 819 817 815 814 812 810 808 805 803 800 797 793 789 784 780 776 771 765 759 752 745 738 731 723 716 710 706 703 701 698 696 693 692 691 690 689 688 689 689 687 687 688 688 687 687
834 835 836 837 837 837 837 837 837 838 839 840 842 843 843 844 844 844 844 844 844 844 844 843 843 843 842 842 841 840 839 837 836 834 832 830 828 826 824 822 820 818 816 814 811 809 807 805 802 799 796 792 788 784 779 776 772 766 760 754 748 741 733 725 719 713 708 703 700 697 693 691 690 688 686 685 684 683 683 683 683 684 684 685 685
834 835 836 836 837 837 837 837 838 838 840 841 842 844 844 844 844 844 844 844 844 844 844 844 844 844 843 842 841 840 839 838 836 835 833 831 829 827 825 823 821 819 816 814 811 809 807 804 802 799 795 791 786 783 778 775 772 767 762 757 751 744 735 728 722 716 710 706 701 696 693 691 689 686 683 682 680 679 679 679 680 681 682 682 683
834 835 836 836 837 837 837 838 838 839 841 842 842 844 844 844 844 844 844 844 844 844 844 844 845 844 843 843 842 841 840 839 837 835 833 832 830 828 826 824 822 820 817 814 812 810 808 806 802 799 795 790 786 782 778 775 772 767 762 757 751 743 737 731 724 718 713 709 704 699 696 692 689 686 683 682 681 679 678 678 679 679 680 680 681
834 835 836 836 837 837 837 838 839 840 842 842 843 844 844 845 844 844 845 845 844 845 845 845 845 844 843 843 842 842 841 840 838 836 834 832 831 829 827 825 823 820 818 816 814 812 809 807 803 799 795 790 786 782 778 775 772 767 762 757 750 744 738 732 727 722 717 712 707 703 699 695 693 690 687 685 683 680 679 678 678 678 679 679 680
834 835 836 836 837 837 838 839 840 841 842 842 843 844 844 844 844 845 845 845 845 845 846 846 845 844 844 843 843 843 842 840 838 837 835 833 831 830 828 825 823 821 819 817 815 813 810 808 804 800 795 791 787 782 779 775 771 767 763 757 751 745 740 735 731 726 721 716 712 709 705 701 698 695 692 688 685 682 680 679 678 678 679 679 679
834 835 835 836 837 838 838 840 841 842 842 843 843 843 844 844 844 845 846 845 846 846 846 846 845 845 844 844 844 843 842 840 839 837 835 834 832 830 828 826 824 822 820 818 816 814 811 808 805 800 796 792 788 783 779 776 772 768 764 759 753 748 744 740 735 731 726 723 720 716 712 707 704 700 696 691 687 683 682 681 679 678 678 679 680
833 835 836 836 837 838 839 840 841 842 843 843 843 843 844 844 844 846 846 846 846 847 847 847 846 846 845 845 845 844 843 841 840 838 836 835 833 830 829 827 825 823 821 819 817 814 811 808 804 800 797 793 789 786 782 778 774 769 764 760 756 753 750 746 741 736 732 729 726 721 717 713 708 703 698 694 690 688 687 685 683 681 681 681 681
833 835 836 837 838 838 839 840 841 842 843 843 843 844 844 844 845 846 846 847 847 847 847 847 847 846 846 845 845 844 843 842 840 838 837 835 833 831 829 827 826 824 821 819 817 814 811 808 804 801 797 794 790 787 783 779 774 769 765 762 759 756 754 750 746 742 738 734 730 725 721 716 711 706 702 699 696 694 693 691 689 687 686 685 684
833 835 836 837 837 838 839 840 841 842 843 844 844 844 845 845 845 846 847 847 847 848 848 848 847 846 846 845 845 844 843 842 840 839 837 836 834 832 830 828 826 823 821 819 816 813 811 808 804 801 797 794 790 786 783 779 776 772 768 765 761 758 755 751 748 745 742 738 734 728 723 719 714 710 707 704 702 700 699 697 695 693 692 690 689
834 835 836 836 837 838 839 840 841 841 843 843 844 845 845 846 846 846 847 848 848 848 848 848 847 847 846 845 845 844 843 842 841 840 838 836 835 832 830 828 826 824 821 819 815 812 809 807 804 801 798 795 792 789 785 781 778 774 771 768 764 760 756 753 751 749 745 742 737 733 729 725 720 716 713 710 708 706 705 702 700 699 697 694 694
834 835 835 836 837 838 839 840 841 841 842 843 844 845 846 847 847 847 847 848 848 848 848 848 847 846 846 845 845 844 843 842 841 840 838 836 835 833 830 828 826 824 821 818 815 812 809 807 805 803 801 798 795 792 789 785 781 777 774 771 767 764 760 757 755 751 747 744 741 737 733 730 726 722 719 717 715 712 710 707 705 703 701 699 697
833 834 835 836 837 837 838 839 840 841 842 842 843 844 845 847 848 848 848 848 849 849 848 848 847 846 846 846 845 844 843 842 841 840 838 836 835 833 830 828 826 823 821 818 815 813 811 809 808 806 804 801 798 796 793 790 786 782 778 774 770 767 763 760 757 753 750 746 743 739 736 733 730 726 724 722 719 716 713 711 708 705 703 701 700
832 833 834 835 836 837 838 839 840 841 841 842 843 843 844 845 847 848 849 849 849 849 848 848 847 847 846 846 845 844 843 842 841 839 838 836 835 832 830 827 825 823 821 818 815 814 813 812 810 808 806 804 801 799 796 792 789 786 782 777 773 770 767 763 760 757 753 749 746 743 739 736 733 730 727 723 720 717 715 712 710 708 706 704 701
831 832 833 834 835 836 837 838 839 840 840 841 843 843 843 844 845 846 848 848 848 848 848 848 847 847 846 846 845 844 843 842 841 839 838 836 834 832 830 828 825 824 821 818 817 816 815 814 812 810 808 806 803 800 798 794 791 788 784 781 777 773 770 766 762 758 755 752 749 745 742 739 736 733 729 726 723 721 718 714 712 710 707 705 702
830 831 832 833 834 835 836 837 838 839 840 841 842 842 843 843 844 845 846 846 847 847 847 847 847 846 846 845 845 843 843 842 840 839 837 836 834 832 830 828 826 824 822 820 819 818 817 815 813 811 809 807 805 802 799 796 792 789 786 783 780 776 772 768 764 760 757 754 750 747 744 741 738 735 732 729 726 723 721 717 715 712 710 707 705
829 830 831 832 833 834 835 836 837 838 839 840 841 842 843 843 843 844 844 845 845 846 846 847 847 846 845 845 844 843 842 841 840 839 837 835 834 832 829 827 825 824 822 822 821 820 818 817 815 812 810 808 806 803 800 797 794 791 787 784 781 777 773 769 766 762 759 755 752 748 746 743 740 738 735 731 728 726 723 720 718 715 712 709 707
828 829 830 831 832 833 834 835 836 837 838 839 840 841 842 842 843 843 844 844 844 845 845 846 846 846 845 845 844 843 842 841 840 838 837 835 834 831 829 827 826 825 824 823 822 821 819 818 816 813 811 809 807 804 802 798 795 792 789 786 782 778 775 772 768 764 760 757 753 750 747 745 742 740 737 734 731 729 726 723 721 718 714 711 708
827 828 829 830 831 832 834 835 835 837 838 839 840 840 841 841 842 842 843 843 844 844 844 845 845 845 845 844 844 843 842 841 839 838 837 835 833 831 829 828 828 827 826 824 823 821 820 818 816 814 812 810 807 805 802 799 796 793 789 786 783 780 777 774 770 766 762 758 755 752 750 747 745 742 739 737 734 731 728 725 722 719 716 713 709
826 826 827 829 830 831 833 834 835 836 837 838 839 839 840 840 841 842 842 843 843 843 844 844 844 845 844 843 843 842 841 840 839 838 837 835 833 831 830 829 828 827 826 825 824 822 820 818 817 814 812 810 808 805 803 800 797 793 790 786 784 781 777 774 770 767 764 761 758 755 752 750 747 744 742 740 737 734 731 727 724 720 716 713 710
824 825 827 828 829 830 831 832 833 835 836 836 837 838 838 839 840 840 841 842 842 842 843 843 844 844 843 843 842 841 840 839 838 837 836 835 833 832 831 829 828 828 827 826 824 822 821 819 817 815 813 811 808 806 803 801 798 794 791 787 784 781 778 774 771 768 765 762 760 757 754 752 749 747 744 742 739 736 733 729 726 722 719 715 712
822 824 826 826 828 829 830 831 832 833 834 835 836 836 837 838 838 839 840 840 841 841 842 842 843 843 842 842 841 840 840 839 838 837 836 835 834 832 831 829 828 828 827 826 824 823 821 819 817 815 813 811 809 807 804 801 798 795 792 788 785 782 779 776 773 770 767 764 762 759 756 753 751 748 745 743 740 738 735 731 727 724 721 717 713
821 822 824 825 826 828 829 830 831 831 832 834 834 834 835 836 836 837 838 838 839 840 840 841 841 841 841 841 840 840 839 838 838 837 836 835 834 832 831 829 828 827 826 826 824 823 821 819 817 815 813 811 809 807 804 801 798 795 792 789 786 783 780 777 774 771 769 766 763 760 757 755 752 749 747 744 741 738 735 732 728 725 721 718 714
819 820 822 823 825 826 827 828 829 830 831 832 832 833 834 834 835 835 836 836 837 838 838 839 839 839 840 840 839 839 838 837 837 836 835 834 833 832 830 829 828 827 826 825 824 823 821 819 817 815 813 811 810 807 804 802 799 796 793 790 786 783 780 777 775 772 770 767 764 761 759 756 753 751 748 745 742 739 736 733 729 726 722 719 715
816 818 819 821 822 823 825 826 827 828 829 830 831 831 832 832 833 833 834 834 835 835 836 837 837 837 838 838 838 838 837 837 836 836 835 834 833 832 830 829 827 826 826 825 824 823 821 819 818 816 814 812 810 808 805 803 800 796 793 790 787 784 781 778 775 773 770 768 765 763 760 757 755 751 749 746 743 740 737 734 730 727 724 720 717
814 816 818 819 820 822 823 824 825 826 827 828 828 829 830 830 831 831 832 833 834 834 834 835 835 836 836 836 836 836 836 835 835 835 834 833 832 831 830 828 827 826 825 824 823 822 821 819 818 816 814 812 810 808 806 804 801 797 794 791 788 785 782 779 776 774 771 769 766 764 761 758 756 753 750 747 745 742 738 735 732 728 725 722 719
811 813 815 816 818 820 820 821 822 824 824 825 826 827 827 828 829 830 831 831 832 833 833 833 833 834 835 835 835 835 834 834 834 834 833 832 832 830 829 828 826 825 824 823 823 822 821 819 817 816 814 812 810 808 806 804 801 798 795 792 789 786 783 780 778 776 773 771 768 765 763 760 757 754 752 749 747 744 740 737 734 730 727 724 721
808 810 812 813 815 816 817 819 820 821 822 822 823 824 825 826 827 828 829 830 830 831 832 832 832 833 833 833 833 833 833 833 832 832 832 832 831 830 828 827 826 825 824 823 822 821 820 819 817 815 814 812 810 808 806 804 801 798 796 793 790 787 784 782 780 777 775 772 770 767 765 762 759 756 754 751 748 746 742 739 736 733 730 727 724
805 807 808 810 812 813 814 816 817 818 819 820 821 821 822 823 824 826 827 827 829 829 830 830 831 831 831 831 831 831 831 831 831 830 831 830 830 829 828 826 825 824 823 822 822 821 819 818 817 815 814 812 810 808 806 803 801 798 796 793 790 788 785 783 780 778 776 774 771 769 766 763 760 758 755 752 749 746 743 741 738 735 732 729 726
802 804 806 807 809 810 811 812 813 814 815 817 818 819 820 821 822 823 824 825 826 827 828 828 829 829 829 829 830 830 830 829 829 829 829 829 828 828 827 826 825 824 822 822 821 820 819 818 816 815 814 812 810 808 805 803 800 798 795 793 791 789 786 784 781 778 776 774 772 769 767 764 762 759 756 754 751 748 745 742 740 737 734 731 728
798 800 802 804 805 806 807 808 809 810 812 813 815 816 817 818 819 820 821 822 823 824 825 826 827 827 828 828 828 828 828 828 827 827 827 827 827 827 826 825 824 823 822 821 820 819 818 817 816 814 813 811 809 807 805 803 800 798 795 793 791 789 787 784 782 779 777 775 772 770 767 765 763 760 758 755 752 750 747 744 742 739 736 733 730
795 797 798 800 802 803 804 805 806 807 809 811 812 813 814 815 816 817 819 820 820 821 823 823 824 825 825 826 826 826 826 826 826 826 826 826 826 825 825 824 823 822 821 820 819 819 817 816 815 814 813 811 809 807 805 803 800 798 796 794 792 789 787 785 782 780 777 775 772 770 768 766 764 761 759 756 754 751 749 746 743 741 738 735 732
791 793 795 796 798 799 800 801 803 804 805 807 808 809 811 812 813 814 816 817 818 819 820 821 822 823 823 824 824 824 824 825 825 824 824 824 824 824 824 823 822 821 820 820 819 818 817 816 815 814 812 810 809 807 805 803 801 798 796 795 792 790 787 785 782 780 778 775 773 771 769 767 765 762 760 758 755 753 750 748 746 743 740 738 735